World > North America > United States > Texas > Richland  

Richland, TX Hourly Weather Updates

Feedback E-mail the Weather

Quick Clicks

Richland, TX Weather Maps

°F °C°F °C
Richland Weather Map
UTC Time: 6/18/2024, 12:56
Your Time:

Richland, TX Regional Weather

Expires:202406181300;;232136
ASUS44 KFWD 181215
RWRTX 
NORTH TEXAS HOURLY WEATHER ROUNDUP
NATIONAL WEATHER SERVICE FORT WORTH TX
700 AM CDT TUE JUN 18 2024

NOTE: "FAIR" INDICATES FEW OR NO CLOUDS BELOW 12,000 FEET WITH NO
SIGNIFICANT WEATHER AND/OR OBSTRUCTIONS TO VISIBILITY.


TXZ143>147-156>162-174-175-181300-
CENTRAL TEXAS
  
CITY           SKY/WX    TMP DP  RH WIND       PRES   REMARKS
WACO           MOCLDY    74  71  91 SE7       29.84S                  
6HR MIN TEMP:  73; 6HR MAX TEMP:  79;                                

WACO-TSTC      CLEAR     73  72  94 SE5       29.85  HAZE             
WACO-MCGREGOR  FAIR      74  72  93 SE8       29.86R                  
6HR MIN TEMP:  73; 6HR MAX TEMP:  77;                                

HILLSBORO      MOCLDY    74  74 100 SE6       29.85S                  
6HR MIN TEMP:  73; 6HR MAX TEMP:  78;                                

CORSICANA      FAIR      76  72  87 SE9       29.88R                  
6HR MIN TEMP:  75; 6HR MAX TEMP:  79;                                

MEXIA          FAIR      74  73  99 MISG      29.86S                  
6HR MIN TEMP:  73; 6HR MAX TEMP:  78;                                

HEARNE         FAIR      75  72  91 CALM      29.85R                  
6HR MIN TEMP:  74; 6HR MAX TEMP:  78;                                

CAMERON        FAIR      73  71  95 CALM      29.84S                  
6HR MIN TEMP:  73; 6HR MAX TEMP:  77;                                

TEMPLE         MOCLDY    73  72  96 SE6       29.86R                  
6HR MIN TEMP:  73; 6HR MAX TEMP:  75;                                

KILLEEN        CLOUDY    77  75  94 SE10      29.84R                  
FORT CAVAZOS   CLOUDY    74  72  93 SE8       29.83R                  
6HR MIN TEMP:  73; 6HR MAX TEMP:  77;                                

GATESVILLE     CLOUDY    75  75 100 SE7       29.85R                  
HAMILTON       CLOUDY    74  73  97 SE13      29.85R                  
6HR MIN TEMP:  74; 6HR MAX TEMP:  78;                                

$$


SKY/WX - Weather  TMP - Temperature  DP - Dew Point  RH - Humidity
WIND - Wind Direction/Speed PRES - Barometric Pressure VSB - Visibility
WCI - Wind Chill Index E13G22 Wind - East Wind 13 mph/Gusts of 22 mph

Trending Headlines

Trending Entertainment Headlines

Richland Radar Loop

Use the map search tool if you want to place a location marker on the radar map...

Richland Quick Facts

National Two Day Weather Forecast


E-mail the Richland Weather Forecast

Voice your opinion or tell us about page issues...